Terug naar catalogus

STARLINK-5775

ActiefCommunicatieVLEO
NORAD 56503·PAYLOAD·🇺🇸 United States

Gelanceerd May 14, 2023 vanaf Cape Canaveral Space Force Station

Loading…

Volgende Passages (komende 24 uur)

TLE

VersSource: CelesTrak SupGP

Epoch: Sep 14, 2026, 21:24 UTC

1 56503C 23065A   26257.89215278  .00017778  00000+0  64399-3 0  2579
2 56503  42.9994 223.7728 0001096 249.0952 273.1156 15.27566495    12

Volg STARLINK-5775 in realtime met AllMySat

Download on the App Store